Stations météo

Publicité
Toulouse/Blagnac, France (7630): Température de l'air & dewpoint: 25.10.2020 23:00:00 - 31.10.2020 23:00:00 (CET)Toulouse/Blagnac, France (7630): Température de l'air 5cm: 25.10.2020 23:00:00 - 31.10.2020 23:00:00 (CET)Toulouse/Blagnac, France (7630): Température de l'air -20cm & Température de l'air -100cm: 25.10.2020 23:00:00 - 31.10.2020 23:00:00 (CET)Toulouse/Blagnac, France (7630): Vitesse du vent & gusts: 25.10.2020 23:00:00 - 31.10.2020 23:00:00 (CET)Toulouse/Blagnac, France (7630): Direction du vent: 25.10.2020 23:00:00 - 31.10.2020 23:00:00 (CET)Toulouse/Blagnac, France (7630): reduced air pressure: 25.10.2020 23:00:00 - 31.10.2020 23:00:00 (CET)Toulouse/Blagnac, France (7630): visibility: 25.10.2020 23:00:00 - 31.10.2020 23:00:00 (CET)Toulouse/Blagnac, France (7630): Ensoleillement: 25.10.2020 23:00:00 - 31.10.2020 23:00:00 (CET)Toulouse/Blagnac, France (7630): Quantités de précipitations: 25.10.2020 23:00:00 - 31.10.2020 23:00:00 (CET)
Date & Time tt [°C] td [°C] tt 5cm [°C] tt -20cm [°C] tt -100cm [°C] ff [km/h] ff [knt] fx [km/h] fx [knt] dd ppp [hPa] vv [km] sd [min] rr [mm]
31.10.2020 23:00:00 10,9 9,7 4,7 13,7 15,7 3 2 11 6 SSE 1023,7 4,6 0 0,0
31.10.2020 22:00:00 10,2 8,5 4,6 13,8 15,7 9 5 11 6 SSE 1023,7 5 0 0,0
31.10.2020 21:00:00 11,7 9,6 4,8 13,8 15,7 3 2 5 3 S 1023,9 7 0 0,0
31.10.2020 20:00:00 13,2 10,0 5,3 13,9 15,7 2 1 10 6 SE 1023,9 10 0 0,0
31.10.2020 19:00:00 14,4 10,4 6,6 13,8 15,7 6 3 14 8 SE 1023,6 16 0 0,0
31.10.2020 18:00:00 16,6 10,7 10,3 13,7 15,7 8 4 13 7 SE 1022,9 31 8 0,0
31.10.2020 17:00:00 19,6 11,6 17,9 13,6 15,7 8 4 14 8 SE 1022,9 43 60 0,0
31.10.2020 16:00:00 20,6 11,5 19,6 13,4 15,7 11 6 20 11 SE 1022,4 26 60 0,0
31.10.2020 15:00:00 20,6 12,6 27,0 13,1 15,7 14 7 23 12 SE 1021,8 23 60 0,0
31.10.2020 14:00:00 20,5 12,7 26,5 12,9 15,7 9 5 21 11 SE 1022,6 20 60 0,0
31.10.2020 13:00:00 19,5 13,2 22,8 12,8 15,8 13 7 31 17 SE 1023,0 10 60 0,0
31.10.2020 12:00:00 17,6 13,3 17,8 12,7 15,8 20 11 33 18 SSE 1023,5 7 60 0,0
31.10.2020 11:00:00 14,9 12,8 13,5 12,7 15,8 18 10 34 18 SE 1024,1 7 38 0,0
31.10.2020 10:00:00 12,1 11,9 9,4 12,7 15,8 13 7 24 13 SE 1024,7 5 2 0,0
31.10.2020 09:00:00 8,1 7,8 2,8 12,8 15,8 8 5 11 6 S 1025,0 10 9 0,0
31.10.2020 08:00:00 6,4 6,1 0,6 13,0 15,8 2 1 8 4 SSE 1024,9 6 8 0,0
31.10.2020 07:00:00 5,3 4,7 1,0 13,0 15,8 4 2 9 5 S 1024,4 4,7 0 0,0
31.10.2020 06:00:00 6,0 5,6 1,9 13,2 15,8 7 4 10 5 SSE 1024,4 4,6 0 0,0
31.10.2020 05:00:00 6,6 6,2 1,3 13,3 15,8 3 2 6 3 S 1024,2 1,4 0 0,0
31.10.2020 04:00:00 6,4 6,0 1,6 13,4 15,8 6 3 8 4 SSE 1023,9 2,2 0 0,0
31.10.2020 03:00:00 7,8 7,4 1,6 13,5 15,8 3 1 7 4 S 1024,3 0,6 0 0,0
31.10.2020 02:00:00 8,3 7,9 2,3 13,7 15,8 6 3 8 4 SSE 1024,4 0,8 0 0,0
31.10.2020 01:00:00 8,8 8,3 3,1 13,8 15,8 4 2 10 5 SSE 1024,5 3,4 0 0,0
31.10.2020 00:00:00 8,9 8,3 4,5 13,9 15,8 7 4 9 5 SSE 1024,7 2,9 0 0,0
30.10.2020 23:00:00 9,7 8,9 3,2 14,0 15,8 5 3 7 4 S 1025,0 3,8 0 0,0
30.10.2020 22:00:00 10,2 8,8 3,6 14,1 15,8 5 3 6 4 S 1025,1 7 0 0,0
30.10.2020 21:00:00 11,7 9,4 4,2 14,2 15,8 2 1 6 3 SW 1024,8 9 0 0,0
30.10.2020 20:00:00 13,4 10,6 5,3 14,2 15,8 5 3 9 5 NW 1024,8 16 0 0,0
30.10.2020 19:00:00 15,0 11,0 10,3 14,2 15,8 6 4 10 5 NW 1024,7 26 0 0,0
30.10.2020 18:00:00 16,7 10,8 10,3 14,1 15,8 7 4 9 5 NW 1024,3 50 25 0,0
30.10.2020 17:00:00 19,1 11,1 17,8 13,9 15,8 4 2 13 7 NNE 1024,1 45 60 0,0
30.10.2020 16:00:00 19,9 10,9 19,1 13,7 15,8 5 3 15 8 N 1024,1 40 60 0,0
30.10.2020 15:00:00 19,5 10,8 26,4 13,5 15,8 6 4 20 11 NNE 1024,4 32 60 0,0
30.10.2020 14:00:00 18,7 11,3 26,0 13,3 15,8 8 4 17 9 NNE 1024,6 31 60 0,0
30.10.2020 13:00:00 17,8 10,9 23,1 13,2 15,8 6 3 14 8 NE 1025,2 27 60 0,0
30.10.2020 12:00:00 15,7 10,5 19,6 13,1 15,8 5 3 13 7 NNE 1026,0 23 60 0,0
30.10.2020 11:00:00 13,5 9,9 17,9 13,1 15,8 2 1 6 3 N 1026,6 20 60 0,0
30.10.2020 10:00:00 11,1 9,4 11,3 13,2 15,8 4 2 12 7 SSW 1026,9 16 60 0,0
30.10.2020 09:00:00 8,6 8,2 5,2 13,3 15,8 6 4 10 5 SSW 1027,3 13 60 0,0
30.10.2020 08:00:00 6,6 6,3 1,1 13,4 15,8 4 2 6 4 SSE 1027,2 6 10 0,0
30.10.2020 07:00:00 6,3 6,0 1,2 13,6 15,8 4 2 11 6 S 1027,0 0,4 0 0,0
30.10.2020 06:00:00 6,1 5,5 1,8 13,7 15,8 4 2 9 5 S 1027,1 0,2 0 0,0
30.10.2020 05:00:00 7,1 6,5 1,8 13,8 15,8 5 3 7 4 SSW 1026,8 2,1 0 0,0
30.10.2020 04:00:00 7,6 7,0 2,4 13,9 15,8 6 3 7 4 SSE 1026,5 2,0 0 0,0
30.10.2020 03:00:00 8,9 8,3 2,5 14,1 15,9 2 1 6 4 SE 1026,6 0,3 0 0,0
30.10.2020 02:00:00 8,8 8,0 3,0 14,2 15,9 4 2 7 4 SSW 1027,0 0,5 0 0,0
30.10.2020 01:00:00 9,4 8,5 4,1 14,3 15,9 6 3 8 4 SW 1027,1 9 0 0,0
30.10.2020 00:00:00 10,6 9,5 4,7 14,4 15,8 5 3 7 4 SE 1027,2 6 0 0,0
29.10.2020 23:00:00 10,9 9,3 5,4 14,5 15,8 5 3 7 4 S 1027,0 8 0 0,0
29.10.2020 22:00:00 11,2 9,5 5,3 14,6 15,9 4 2 9 5 SSW 1027,1 12 0 0,0
29.10.2020 21:00:00 12,5 9,9 5,8 14,7 15,9 3 1 7 4 SSW 1026,8 19 0 0,0
29.10.2020 20:00:00 14,5 10,5 6,6 14,7 15,9 6 4 8 5 E 1026,8 12 0 0,0
29.10.2020 19:00:00 15,4 10,6 8,1 14,6 15,8 5 3 10 5 E 1026,5 35 0 0,0
29.10.2020 18:00:00 16,1 10,4 10,8 14,6 15,9 5 3 8 5 NNE 1026,3 42 8 0,0
29.10.2020 17:00:00 17,1 10,0 16,2 14,5 15,8 6 3 12 6 N 1026,2 39 14 0,0
29.10.2020 16:00:00 17,5 10,4 17,7 14,4 15,9 5 3 18 10 N 1026,1 40 23 0,0
29.10.2020 15:00:00 17,6 10,7 19,9 14,2 15,8 9 5 24 13 NNW 1026,0 29 47 0,0
29.10.2020 14:00:00 18,2 11,3 20,3 14,1 15,9 13 7 24 13 NNW 1026,4 57 52 0,0
29.10.2020 13:00:00 17,9 10,0 22,7 13,9 15,9 11 6 22 12 NNW 1026,6 19 58 0,0
29.10.2020 12:00:00 17,6 10,7 20,1 13,8 15,8 16 8 27 15 NW 1027,3 16 57 0,0
29.10.2020 11:00:00 16,4 10,0 20,1 13,8 15,9 3 2 7 4 NE 1027,7 39 60 0,0
29.10.2020 10:00:00 14,3 9,3 14,6 13,8 15,9 4 2 11 6 SSE 1027,9 27 60 0,0
29.10.2020 09:00:00 11,5 9,2 10,4 13,9 15,9 6 3 10 5 SSE 1027,5 32 47 0,0
29.10.2020 08:00:00 10,3 8,9 8,7 13,9 15,9 5 3 11 6 S 1027,0 34 1 0,0
29.10.2020 07:00:00 9,8 8,6 8,6 14,0 15,9 8 4 10 6 S 1026,4 31 0 0,0
29.10.2020 06:00:00 9,9 8,7 8,4 14,0 15,9 6 3 9 5 S 1026,6 34 0 0,0
29.10.2020 05:00:00 10,5 9,3 9,4 14,1 15,9 5 3 9 5 S 1026,3 33 0 0,0
29.10.2020 04:00:00 10,8 9,9 7,8 14,1 15,9 7 4 13 7 S 1026,0 33 0 0,0
29.10.2020 03:00:00 10,3 9,2 8,0 14,2 15,9 5 3 16 8 S 1025,8 29 0 0,0
29.10.2020 02:00:00 11,5 9,7 10,1 14,3 15,9 10 5 17 9 SW 1025,9 32 0 0,0
29.10.2020 01:00:00 12,2 10,3 10,5 14,3 15,9 12 6 19 10 SW 1025,7 29 0 0,0
29.10.2020 00:00:00 11,8 10,0 9,8 14,4 15,9 10 5 17 9 WSW 1025,5 33 0 0,0
28.10.2020 23:00:00 12,9 10,6 10,4 14,4 15,9 11 6 18 10 WSW 1025,0 37 0 0,0
28.10.2020 22:00:00 13,4 10,7 11,6 14,5 15,9 13 7 23 12 W 1024,2 34 0 0,0
28.10.2020 21:00:00 13,9 11,1 12,4 14,5 15,9 14 8 24 13 W 1023,8 38 0 0,0
28.10.2020 20:00:00 14,6 11,4 12,3 14,5 15,9 18 10 27 14 W 1023,7 44 0 0,0
28.10.2020 19:00:00 14,0 11,3 11,9 14,5 16,0 11 6 18 10 W 1023,3 49 0 0,0
28.10.2020 18:00:00 14,5 11,6 13,0 14,5 15,9 10 5 20 11 W 1022,4 58 17 0,0
28.10.2020 17:00:00 15,9 12,1 15,7 14,4 15,9 13 7 22 12 NW 1021,5 51 12 0,0
28.10.2020 16:00:00 15,2 13,2 15,1 14,3 15,9 13 7 23 12 NW 1021,4 59 25 0,0
28.10.2020 15:00:00 14,0 12,9 13,8 14,2 15,9 21 11 42 23 NW 1021,5 12 0 0,6
28.10.2020 14:00:00 16,6 13,1 18,4 14,1 15,9 15 8 24 13 NW 1021,1 42 1 0,0
28.10.2020 13:00:00 16,5 12,6 17,8 13,9 15,9 11 6 20 11 WNW 1021,2 14 8 0,0
28.10.2020 12:00:00 15,7 13,0 17,1 13,8 15,9 9 5 19 10 W 1021,5 52 0 0,0
28.10.2020 11:00:00 15,1 13,3 14,8 13,8 16,0 9 5 16 9 WSW 1020,8 44 0 0,0
28.10.2020 10:00:00 14,2 12,9 14,0 13,8 16,0 9 5 14 8 SW 1020,4 37 0 0,0
28.10.2020 09:00:00 13,2 12,6 12,6 13,8 16,0 8 4 10 5 S 1019,6 22 0 0,0
28.10.2020 08:00:00 12,8 12,2 12,2 13,8 16,0 6 3 8 4 S 1018,8 20 0 0,0
28.10.2020 07:00:00 12,3 11,7 11,9 13,8 16,0 3 2 11 6 S 1018,3 20 0 0,0
28.10.2020 06:00:00 12,2 11,6 11,8 13,8 16,0 4 2 10 5 SSW 1017,9 8 0 0,0
28.10.2020 05:00:00 12,1 11,3 11,4 13,8 16,0 5 3 13 7 SSW 1017,4 42 0 0,2
28.10.2020 04:00:00 12,1 11,3 11,0 13,8 16,0 4 2 8 4 SSE 1017,1 28 0 0,0
28.10.2020 03:00:00 12,0 11,4 10,9 13,8 16,0 4 2 12 7 SE 1017,2 33 0 0,0
28.10.2020 02:00:00 11,8 11,0 11,0 13,8 16,0 10 5 15 8 SSE 1016,9 27 0 0,0
28.10.2020 01:00:00 12,1 11,5 11,7 13,9 16,0 9 5 15 8 SSE 1016,9 5 0 0,6
28.10.2020 00:00:00 12,4 11,1 11,8 13,8 16,0 7 4 10 6 S 1017,2 4,4 0 0,2
27.10.2020 23:00:00 12,8 10,3 11,5 13,9 16,0 5 3 10 5 ENE 1017,2 18 0 0,4
27.10.2020 22:00:00 14,1 9,5 11,9 13,9 16,0 3 2 17 9 NW 1017,0 9 0 0,2
27.10.2020 21:00:00 13,8 9,0 10,8 13,9 16,0 8 5 14 8 SW 1016,1 25 0 0,0
27.10.2020 20:00:00 14,1 8,1 10,1 13,9 16,0 2 1 8 4 SW 1015,5 36 0 0,0
27.10.2020 19:00:00 14,2 7,7 9,5 13,9 16,0 4 2 9 5 S 1015,2 34 0 0,0
27.10.2020 18:00:00 14,2 7,5 9,6 13,8 16,0 7 4 14 8 S 1014,6 60 1 0,0
27.10.2020 17:00:00 17,4 7,7 17,8 13,7 16,1 11 6 19 11 SSW 1014,2 20 38 0,0
27.10.2020 16:00:00 17,4 8,3 17,8 13,6 16,1 9 5 22 12 WSW 1014,0 47 50 0,0
27.10.2020 15:00:00 17,6 8,2 21,2 13,4 16,1 13 7 30 16 W 1014,3 17 60 0,0
27.10.2020 14:00:00 17,0 8,2 18,8 13,3 16,1 13 7 27 15 W 1014,6 23 43 0,0
27.10.2020 13:00:00 16,4 7,3 18,1 13,1 16,1 16 9 29 16 WSW 1015,5 32 34 0,0
27.10.2020 12:00:00 14,7 8,0 16,4 13,1 16,1 16 9 24 13 W 1016,4 26 11 0,0
27.10.2020 11:00:00 13,5 7,9 12,6 13,1 16,1 12 7 22 12 SW 1016,7 45 0 0,0
27.10.2020 10:00:00 11,9 7,8 10,7 13,1 16,1 13 7 24 13 SW 1016,8 57 0 0,0
27.10.2020 09:00:00 10,9 8,3 9,5 13,1 16,1 15 8 25 13 WSW 1017,0 48 29 0,0
27.10.2020 08:00:00 10,0 8,4 8,8 13,1 16,1 9 5 35 19 WSW 1016,3 17 5 0,0
27.10.2020 07:00:00 10,2 7,8 9,4 13,2 16,1 16 8 39 21 W 1016,1 52 0 0,0
27.10.2020 06:00:00 10,2 8,1 9,4 13,2 16,1 29 15 42 23 W 1015,9 16 0 0,0
27.10.2020 05:00:00 10,3 7,9 8,8 13,3 16,1 24 13 38 20 W 1015,7 60 0 0,0
27.10.2020 04:00:00 9,9 7,5 9,1 13,3 16,1 18 10 34 18 WSW 1015,8 60 0 0,0
27.10.2020 03:00:00 10,1 7,2 8,9 13,4 16,1 17 9 34 18 W 1016,5 54 0 0,0
27.10.2020 02:00:00 10,2 6,7 9,4 13,5 16,1 21 11 37 20 W 1016,4 60 0 0,0
27.10.2020 01:00:00 9,9 6,4 9,2 13,6 16,1 29 16 42 23 W 1016,5 60 0 0,0
27.10.2020 00:00:00 10,1 6,2 8,6 13,6 16,1 26 14 46 25 WSW 1016,9 60 0 0,0
26.10.2020 23:00:00 9,7 6,2 8,5 13,7 16,1 23 12 41 22 W 1017,0 60 0 0,0
26.10.2020 22:00:00 10,0 6,0 8,7 13,8 16,1 26 14 43 23 WSW 1017,0 60 0 0,0
26.10.2020 21:00:00 9,7 5,7 8,5 13,9 16,1 21 12 42 23 WSW 1016,5 60 0 0,0
26.10.2020 20:00:00 9,7 6,0 8,7 14,0 16,1 28 15 42 23 W 1016,4 60 0 0,0
26.10.2020 19:00:00 10,0 6,7 9,1 14,1 16,1 28 15 44 24 W 1015,9 60 0 0,0
26.10.2020 18:00:00 10,6 7,3 9,7 14,1 16,1 27 15 46 25 W 1015,0 60 29 0,0
26.10.2020 17:00:00 12,0 7,1 12,4 14,1 16,1 29 16 48 26 W 1014,3 33 17 0,0
26.10.2020 16:00:00 12,2 7,1 12,8 14,0 16,1 36 19 55 30 W 1014,0 38 19 0,0
26.10.2020 15:00:00 13,3 6,6 15,4 14,0 16,1 33 18 50 27 W 1013,6 18 55 0,0
26.10.2020 14:00:00 13,2 7,0 13,7 13,9 16,1 31 17 48 26 W 1013,4 23 40 0,0
26.10.2020 13:00:00 12,2 7,3 13,4 13,9 16,1 31 17 54 29 W 1013,9 32 28 0,0
26.10.2020 12:00:00 11,7 6,8 13,3 13,9 16,1 35 19 55 30 W 1014,0 41 33 0,0
26.10.2020 11:00:00 11,7 7,8 11,2 13,9 16,1 26 14 44 24 W 1013,5 46 13 0,0
26.10.2020 10:00:00 10,2 7,8 10,2 14,0 16,1 30 16 44 24 W 1013,1 40 52 0,0
26.10.2020 09:00:00 9,6 7,9 9,1 14,1 16,1 22 12 38 20 W 1012,8 51 9 0,0
26.10.2020 08:00:00 9,3 7,7 8,4 14,2 16,1 26 14 40 22 W 1012,2 57 15 0,0
26.10.2020 07:00:00 9,2 7,6 8,4 14,2 16,1 29 16 42 23 W 1011,5 22 0 0,2
26.10.2020 06:00:00 9,8 8,1 9,4 14,3 16,1 21 12 33 18 WSW 1010,6 60 0 0,0
26.10.2020 05:00:00 9,8 8,6 9,3 14,4 16,1 18 10 31 17 SW 1010,3 55 0 0,2
26.10.2020 04:00:00 9,9 9,0 9,5 14,5 16,1 14 8 23 12 SW 1010,2 21 0 0,2
26.10.2020 03:00:00 10,1 9,2 9,6 14,5 16,1 12 6 18 10 SW 1010,7 21 0 1,0
26.10.2020 02:00:00 10,4 9,5 10,0 14,6 16,1 11 6 23 12 WSW 1011,2 8 0 0,8
26.10.2020 01:00:00 10,6 9,8 10,1 14,7 16,1 11 6 20 11 SSW 1011,3 27 0 0,4
26.10.2020 00:00:00 10,7 9,8 10,2 14,8 16,1 9 5 24 13 W 1010,8 11 0 3,4
25.10.2020 23:00:00 11,0 10,2 10,5 14,8 16,1 12 7 22 12 W 1010,8 3,2 0 2,5

tt = Température de l'air
td = dewpoint
tt 5cm = Température de l'air 5cm
tt -20cm = Température de l'air -20cm
tt -100cm = Température de l'air -100cm
ff = Vitesse du vent
fx = gusts
dd = Direction du vent
ppp = reduced air pressure
vv = visibility
sd = Ensoleillement
rr = Quantités de précipitations

stations d'obs. à proximité